Location: Geyikbay?r?
(36.8756°N, 30.4583°E)
Time: 11:58:07
(UTC+00:00)

Cosmos 2082 Rocket - Pass Details

Date: 05 August 2024
Orbit: 833 x 852 km, 71.0° (Epoch: 11 September)

Event Time Altitude Azimuth Distance (km) Brightness Sun altitude
Rises 17:59:11 0° 326° (NW) 3,385 6.7 -11.3°
Reaches altitude 10° 18:01:55 10° 315° (NW) 2,448 6.0 -11.8°
Maximum altitude 18:06:38 29° 257° (WSW) 1,503 4.0 -12.6°
Drops below altitude 10° 18:11:21 10° 200° (SSW) 2,442 4.5 -13.4°
Sets 18:14:05 0° 189° (S) 3,375 5.1 -13.8°
